Weather History for Big Piney, WY

Change the Weather History Date:

Saturday, April 27, 2013

  Actual Average Record
Temperature  
Mean Temperature 46 °F 40 °F  
Max Temperature 67 °F 56 °F 73 °F (2001)
Min Temperature 25 °F 25 °F 10 °F (1984)
Degree Days  
Heating Degree Days 19 25  
Month to date heating degree days 857 763  
Since 1 July heating degree days 8839 9458  
Cooling Degree Days 0 0  
Month to date cooling degree days 0 0  
Year to date cooling degree days 0 0  
Moisture  
Dew Point 21 °F    
Average Humidity 48    
Maximum Humidity 81    
Minimum Humidity 14    
Precipitation  
Precipitation 0.00 in 0.03 in 0.20 in (1989)
Month to date precipitation 0.25 0.46  
Year to date precipitation 0.44 1.56  
Sea Level Pressure  
Sea Level Pressure 30.12 in    
Wind  
Wind Speed 6 mph (NW)    
Max Wind Speed 23 mph    
Max Gust Speed 30 mph    
Visibility 10 miles    
Events      
T = Trace of Precipitation, MM = Missing Value Source: NWS Daily Summary

Daily Weather History Graph

Daily Weather History Graph

Search for Another Location

Airport:

Trip Planner

Search our weather history database for the weather conditions in past years. The results will help you decide how hot, cold, wet, or windy it might be!

Date:

Astronomy

Apr. 27, 2013 Rise Set
Actual Time 6:20 AM MDT 8:16 PM MDT
Civil Twilight 5:49 AM MDT 8:46 PM MDT
Nautical Twilight 5:12 AM MDT 9:24 PM MDT
Astronomical Twilight 4:32 AM MDT 10:04 PM MDT
Moon 10:51 PM MDT (4/27) 7:39 AM MDT (4/27)
Length of Visible Light 14h 56m
Length of Day
13h 56m
Waning Gibbous, 95% of the Moon is Illuminated
Apr 27
Waning Gibbous
May 2
Last Quarter
May 9
New
May 17
First Quarter
May 24
Full

Hourly Weather History & Observations

Time (MDT) Temp. Windchill Dew Point Humidity Pressure Visibility Wind Dir Wind Speed Gust Speed Precip Events Conditions
12:53 AM 33.1 °F 24.4 °F 23.0 °F 66% 30.19 in 10.0 mi North 11.5 mph - N/A   Clear
1:53 AM 30.0 °F - 21.9 °F 72% 30.21 in 10.0 mi Calm Calm - N/A   Clear
2:53 AM 27.0 °F 21.6 °F 21.0 °F 78% 30.20 in 10.0 mi NW 4.6 mph - N/A   Clear
3:53 AM 28.0 °F 22.8 °F 21.0 °F 75% 30.19 in 10.0 mi NE 4.6 mph - N/A   Clear
4:53 AM 28.0 °F - 21.0 °F 75% 30.19 in 10.0 mi Calm Calm - N/A   Clear
5:53 AM 28.0 °F - 21.0 °F 75% 30.20 in 10.0 mi Calm Calm - N/A   Clear
6:53 AM 27.0 °F - 21.0 °F 78% 30.22 in 10.0 mi Calm Calm - N/A   Clear
7:53 AM 32.0 °F - 25.0 °F 75% 30.23 in 10.0 mi Calm Calm - N/A   Clear
8:53 AM 42.1 °F - 24.1 °F 49% 30.23 in 10.0 mi Calm Calm - N/A   Clear
9:53 AM 48.0 °F - 21.9 °F 36% 30.20 in 10.0 mi SE 5.8 mph - N/A   Clear
10:53 AM 55.0 °F - 25.0 °F 31% 30.18 in 10.0 mi Variable 4.6 mph - N/A   Clear
11:53 AM 61.0 °F - 24.1 °F 24% 30.15 in 10.0 mi WSW 5.8 mph - N/A   Clear
12:53 PM 63.0 °F - 16.0 °F 16% 30.11 in 10.0 mi NW 9.2 mph - N/A   Clear
1:53 PM 64.9 °F - 17.1 °F 16% 30.09 in 10.0 mi NW 16.1 mph 21.9 mph N/A   Clear
2:53 PM 66.0 °F - 15.1 °F 14% 30.09 in 10.0 mi NW 17.3 mph 21.9 mph N/A   Clear
3:53 PM 66.0 °F - 18.0 °F 16% 30.06 in 10.0 mi WNW 11.5 mph 19.6 mph N/A   Clear
4:53 PM 64.9 °F - 18.0 °F 16% 30.05 in 10.0 mi WNW 13.8 mph 25.3 mph N/A   Clear
5:53 PM 63.0 °F - 21.0 °F 20% 30.06 in 10.0 mi NW 17.3 mph - N/A   Clear
6:53 PM 60.1 °F - 21.0 °F 22% 30.06 in 10.0 mi NW 11.5 mph - N/A   Clear
7:53 PM 54.0 °F - 24.1 °F 31% 30.05 in 10.0 mi NW 8.1 mph - N/A   Clear
8:53 PM 53.1 °F - 23.0 °F 31% 30.01 in 10.0 mi WNW 4.6 mph - N/A   Clear
9:53 PM 48.0 °F - 23.0 °F 37% 30.02 in 10.0 mi NNW 5.8 mph - N/A   Clear
10:53 PM 45.0 °F 41.8 °F 23.0 °F 42% 30.01 in 10.0 mi NNW 5.8 mph - N/A   Clear
11:53 PM 43.0 °F - 24.1 °F 47% 29.98 in 10.0 mi Calm Calm - N/A   Clear